Temp
19 18 18 18 18 17 17 17 16 16 16 16 16 16 16 16 16 16 16 15 15 15 15 15 15 14 14 14 13 13 13 12 12 11 11 11 10 11 11 11 11 12 12 12 12 12 12 12 11 11 11 11 11 11 11 11 11 11 11 11 10 10 9 9 9 9 9 9 9
19 18 18 18 17 17 17 17 16 16 16 16 16 16 16 16 16 16 15 15 15 15 15 14 14 14 13 13 13 12 12 11 11 10 10 10 10 11 11 11 11 11 11 11 11 11 11 11 11 11 11 11 11 11 11 11 11 11 11 10 10 10 9 9 9 9 10 9 9
18 18 18 17 17 17 17 16 16 16 16 16 16 15 15 16 16 15 15 15 15 14 14 14 13 13 13 12 12 11 11 10 10 10 10 10 10 11 11 11 11 11 11 11 11 11 11 11 11 11 11 11 11 11 11 11 11 10 10 10 10 10 10 10 10 10 10 9 9
18 17 17 17 17 16 16 16 16 16 16 16 15 15 15 15 15 15 15 14 14 14 13 13 12 12 12 11 11 11 11 10 10 10 10 11 11 11 11 11 11 11 11 11 11 11 11 11 11 11 11 11 11 11 11 10 10 9 9 9 9 9 10 10 10 9 9 9 9
17 17 17 17 16 16 16 15 15 15 15 15 15 15 15 15 15 14 14 14 13 13 12 12 12 11 11 11 11 11 10 10 11 11 11 10 10 10 10 10 10 10 10 10 10 10 10 10 10 10 11 11 11 10 10 10 9 8 8 8 9 9 9 10 9 9 9 9 9
17 17 16 16 16 16 15 15 15 15 15 15 15 15 15 15 14 14 13 13 13 12 12 12 11 11 11 10 10 10 10 10 10 10 10 10 10 10 10 10 10 10 10 10 10 10 10 10 10 10 10 10 10 9 9 8 8 7 8 8 9 9 9 9 9 9 9 9 9
16 16 16 16 15 15 15 14 14 14 14 14 14 14 14 14 13 13 13 12 12 12 11 11 11 10 10 10 10 10 10 10 10 10 10 10 9 9 9 9 9 9 9 9 9 10 10 10 9 9 9 9 9 9 8 7 7 7 7 8 8 9 9 9 9 9 9 9 9
16 15 15 15 15 14 14 14 14 14 14 14 14 14 13 13 13 12 12 12 12 11 11 11 10 10 10 10 10 10 10 10 10 9 9 9 9 9 9 9 9 9 9 9 9 9 9 9 9 8 8 8 8 8 8 7 6 6 7 7 8 9 9 9 9 9 9 8 8
15 15 15 14 14 14 14 14 14 14 14 14 13 13 13 13 12 12 12 11 11 11 10 10 10 10 10 10 10 10 10 9 9 9 9 9 9 9 9 9 9 9 9 9 9 9 9 9 9 8 8 8 8 8 7 6 6 6 6 7 8 8 9 9 9 9 8 8 8
15 14 14 14 14 14 14 14 14 14 13 13 13 12 12 12 12 12 11 11 10 10 10 10 10 10 10 10 10 9 9 9 9 9 9 9 9 9 9 9 9 9 9 9 9 9 9 9 9 8 8 7 7 7 7 6 6 6 6 7 7 8 8 8 8 8 8 8 8
14 14 14 14 14 14 14 14 13 13 13 12 12 12 12 11 11 11 10 10 10 10 10 10 10 10 10 10 9 9 9 9 8 9 9 9 9 9 9 9 9 9 9 9 9 9 9 9 9 8 8 7 7 7 6 6 5 6 6 6 7 7 7 8 8 8 8 8 8
14 14 14 14 14 14 14 13 13 13 12 12 12 11 11 11 11 11 11 10 10 10 10 10 10 10 9 9 9 9 9 8 8 8 8 8 8 9 9 9 9 9 9 9 9 9 9 9 8 7 7 7 7 6 6 5 5 5 5 6 6 6 7 7 7 7 7 7 7
14 14 14 14 14 14 13 13 13 13 12 12 12 12 11 11 11 11 11 11 10 10 10 10 9 9 9 9 9 9 8 8 8 8 8 8 8 8 8 8 9 9 9 9 8 8 8 7 7 6 6 6 6 5 5 5 5 5 5 6 6 6 7 7 6 6 6 5 5
14 14 14 14 14 13 13 13 13 13 13 12 12 12 12 11 11 11 11 10 10 10 9 9 9 9 9 9 8 8 8 8 8 8 8 8 8 8 8 8 8 8 8 8 7 7 6 6 6 6 6 5 5 5 5 5 5 5 5 5 5 6 6 5 5 5 4 4 4
14 14 14 14 14 14 13 13 13 13 13 12 12 12 11 11 11 10 10 10 9 9 9 9 9 9 8 8 8 8 7 7 7 7 7 7 7 7 8 8 7 7 7 7 6 6 6 5 5 5 5 5 5 5 4 4 4 4 4 4 4 4 4 4 4 3 3 3 3
14 14 14 14 14 14 13 13 13 12 12 11 11 11 11 10 10 10 9 9 9 9 8 8 8 8 8 7 7 6 6 6 6 6 6 6 7 7 7 6 6 6 6 6 6 5 5 5 5 5 4 4 4 4 4 3 3 3 3 3 3 3 3 2 2 2 2 1 1
14 14 14 14 13 13 13 12 12 11 11 11 10 10 10 10 9 9 9 8 8 8 7 7 7 6 6 6 5 5 5 5 5 5 5 6 6 6 6 5 5 5 5 5 5 5 4 4 4 4 3 3 3 3 3 2 2 2 2 1 1 1 1 1 1 0 0 0 0
14 14 13 13 13 12 12 11 11 10 10 10 10 9 9 9 8 8 8 7 7 6 6 6 5 5 5 4 4 4 4 4 4 4 4 4 4 4 4 4 4 4 4 4 4 4 3 3 2 2 2 2 2 2 2 2 1 1 1 0 0 0 0 0 0 0 -0 -0 -0
14 13 13 13 12 11 11 10 10 10 9 9 9 9 8 8 7 7 7 6 6 5 5 5 4 4 4 4 4 4 4 3 3 3 3 3 3 3 3 3 3 3 3 3 2 2 2 1 1 1 1 1 1 1 1 1 0 -0 -0 -0 -0 -0 -0 -0 -0 -0 -0 -0 -0
13 13 12 12 11 10 10 9 9 9 9 8 8 8 7 7 6 6 5 5 5 4 4 4 4 4 4 4 3 3 3 3 3 3 2 2 2 2 2 2 2 2 2 1 1 1 1 0 0 0 0 0 0 -0 -0 -0 -0 -1 -1 -1 -1 -1 -1 -1 -0 -0 -0 -0 -0
12 12 11 11 10 9 9 9 8 8 8 7 7 6 6 6 5 5 5 4 4 4 4 4 3 3 3 3 3 3 3 2 2 2 2 2 2 2 2 2 1 1 1 1 0 0 -0 -0 -0 -1 -1 -1 -1 -1 -1 -1 -1 -1 -1 -1 -1 -1 -1 -1 -1 -1 -0 -0 -0
11 11 10 9 9 8 8 8 7 7 7 6 6 5 5 5 4 4 4 4 3 3 3 3 3 3 2 2 2 2 2 2 2 2 2 2 1 1 1 1 1 1 0 0 0 0 -0 -0 -1 -1 -1 -1 -1 -1 -1 -1 -1 -1 -1 -1 -1 -1 -1 -1 -1 -0 -0 -0 -0
10 9 9 8 7 7 7 7 6 6 6 5 5 5 4 4 4 3 3 3 3 3 3 3 2 2 2 2 2 2 2 2 1 1 1 1 1 1 1 1 1 0 0 -0 -0 -0 -0 -0 -0 -1 -1 -1 -1 -1 -1 -1 -1 -1 -1 -1 -1 -1 -1 -0 -0 -0 0 0 0
9 8 7 7 6 6 6 6 5 5 5 5 4 4 4 4 3 3 3 3 3 3 2 2 2 2 2 2 2 2 1 1 1 1 1 1 1 1 1 1 1 0 0 -0 -0 -0 -0 -0 -0 -0 -1 -1 -1 -1 -1 -1 -1 -1 -1 -1 -1 -1 -0 -0 -0 0 0 0 0
8 7 7 6 6 6 5 5 5 5 4 4 4 4 4 3 3 3 3 2 2 2 2 2 2 2 2 2 2 1 1 1 1 1 1 1 1 1 1 1 1 1 0 0 0 0 -0 -0 -0 -0 -0 -1 -1 -1 -1 -1 -1 -1 -1 -1 -1 -1 -0 -0 -0 0 0 0 0
7 6 6 6 5 5 5 5 5 4 4 4 4 4 3 3 3 3 2 2 2 2 2 2 2 2 2 2 1 1 1 1 1 1 1 1 1 1 1 1 1 1 0 0 0 0 0 -0 -0 -0 -0 -0 -0 -1 -1 -1 -1 -1 -1 -1 -1 -1 -0 -0 -0 0 0 0 1
7 6 6 5 5 5 5 4 4 4 4 4 3 3 3 3 2 2 2 2 2 2 2 2 1 1 1 1 1 1 1 1 1 1 1 1 1 0 0 0 0 0 0 0 0 0 0 -0 -0 -0 -0 -1 -1 -1 -1 -1 -1 -1 -1 -1 -1 -0 -0 0 0 1 1 1 1
7 6 6 5 5 5 4 4 4 3 3 3 3 3 3 2 2 2 2 2 2 2 1 1 1 1 1 1 1 1 1 0 0 0 0 0 0 0 0 0 0 1 1 1 1 0 0 -0 -0 -1 -1 -1 -1 -1 -1 -1 -1 -1 -1 -1 -1 -0 -0 0 0 0 1 1 1
6 6 6 5 4 4 4 3 3 3 3 3 3 2 2 2 2 2 2 2 2 1 1 1 1 1 1 1 1 0 0 0 0 0 0 0 0 1 1 1 1 1 1 1 1 0 -0 -0 -1 -1 -1 -1 -1 -1 -1 -1 -2 -1 -1 -1 -1 -1 -1 -0 -0 -0 0 0 0
6 5 5 4 4 3 3 3 3 3 3 2 2 2 2 2 2 2 2 2 2 1 1 1 1 1 1 1 1 1 1 1 1 1 1 1 1 1 1 1 1 1 1 1 1 0 -0 -1 -1 -1 -1 -1 -1 -1 -2 -2 -2 -2 -2 -2 -1 -1 -1 -1 -1 -1 -0 -0 0
5 4 4 4 3 3 3 3 3 2 2 2 2 2 2 2 2 2 2 2 2 1 1 1 1 1 1 1 1 1 1 1 1 1 1 1 1 1 1 1 1 1 0 0 0 -0 -1 -1 -1 -1 -1 -1 -2 -2 -2 -2 -2 -2 -2 -2 -2 -1 -1 -1 -1 -0 -0 -0 0
4 4 3 3 3 3 3 3 2 2 2 2 2 2 2 2 2 2 2 2 2 1 1 1 1 1 1 1 1 1 1 1 1 1 1 1 1 1 1 1 1 1 0 -0 -0 -0 -1 -1 -1 -1 -2 -2 -2 -2 -2 -2 -2 -2 -2 -2 -2 -1 -1 -1 -1 -0 -0 -0 -0
3 3 3 3 3 3 3 2 2 2 2 2 2 2 2 2 2 2 2 2 2 1 1 1 1 1 1 1 2 2 2 2 2 2 2 1 1 1 1 1 1 1 -0 -0 -1 -1 -1 -1 -1 -1 -1 -2 -2 -2 -2 -2 -2 -2 -2 -2 -1 -1 -1 -1 -1 -0 -0 -0 -1
3 3 3 2 3 3 2 2 2 2 2 2 2 2 2 2 2 2 2 2 2 2 2 2 2 2 2 2 2 2 2 2 2 2 2 1 1 1 1 1 1 1 -0 -0 -1 -1 -1 -1 -1 -1 -1 -1 -2 -2 -2 -3 -3 -2 -2 -2 -2 -1 -1 -1 -1 -1 -1 -1 -1
3 2 2 3 3 3 3 2 2 2 2 2 2 2 2 2 2 2 2 2 2 2 2 2 2 3 3 3 3 3 3 2 2 2 2 1 1 1 1 0 1 0 0 -0 -0 -1 -1 -1 -1 -1 -1 -1 -2 -2 -3 -3 -3 -3 -2 -2 -2 -2 -2 -2 -2 -1 -1 -2 -2
2 2 2 3 3 3 3 2 2 2 2 2 2 2 2 2 2 2 2 3 3 3 3 3 3 3 3 3 3 3 2 2 2 2 1 1 1 1 0 0 0 0 -0 -0 -0 -1 -1 -1 -1 -1 -1 -2 -2 -3 -3 -3 -3 -3 -3 -3 -3 -2 -2 -2 -2 -2 -2 -2 -2
3 3 3 3 3 3 2 2 2 2 2 2 2 2 3 3 3 3 3 3 3 3 3 3 3 3 3 3 2 2 2 2 2 1 1 1 1 1 0 0 0 -0 -0 -0 -1 -1 -1 -1 -1 -1 -2 -2 -2 -3 -3 -3 -3 -3 -3 -3 -3 -3 -3 -3 -3 -3 -3 -3 -3
3 3 3 3 3 2 2 2 2 2 2 3 3 3 3 3 3 3 3 3 3 3 3 3 3 3 2 2 2 2 2 2 2 1 1 1 1 1 0 0 -0 -0 -1 -1 -1 -1 -1 -1 -2 -2 -2 -2 -3 -3 -3 -4 -4 -4 -4 -4 -4 -4 -4 -4 -4 -4 -4 -4 -4
3 3 3 3 2 2 2 2 3 3 3 3 3 3 3 3 3 3 3 3 3 3 3 3 3 2 2 2 2 2 2 2 2 1 1 1 0 0 -0 -0 -1 -1 -1 -1 -1 -2 -2 -2 -2 -2 -3 -3 -3 -3 -4 -4 -4 -4 -4 -4 -4 -4 -4 -4 -4 -4 -4 -4 -4
3 3 2 2 2 3 3 3 3 3 3 3 3 3 3 3 3 3 3 3 3 3 3 3 3 3 2 2 2 2 2 1 1 1 1 0 0 -0 -0 -1 -1 -1 -1 -1 -2 -2 -3 -3 -3 -3 -3 -3 -4 -4 -4 -4 -4 -4 -4 -4 -4 -4 -5 -5 -5 -5 -5 -5 -5
3 3 3 3 3 3 3 3 3 3 3 3 3 3 3 3 3 3 3 3 3 3 3 3 3 2 2 2 2 2 1 1 1 1 1 0 0 -0 -0 -0 -1 -1 -1 -1 -1 -2 -3 -3 -4 -4 -4 -4 -4 -4 -4 -4 -4 -4 -4 -4 -5 -5 -5 -5 -5 -5 -5 -5 -5
Height
805 805 805 805 805 804 804 805 805 805 804 804 803 802 801 800 800 799 799 799 798 798 797 797 796 795 795 795 795 795 794 794 794 794 794 794 794 794 794 794 794 793 793 792 791 791 790 790 790 789 789 788 788 788 787 787 786 785 785 785 785 785 785 785 785 785 786 786 787
805 804 804 804 804 804 804 804 804 803 803 802 802 801 800 800 799 798 798 798 798 797 796 796 795 795 794 794 794 794 794 793 793 794 794 794 794 794 794 793 793 792 791 790 790 790 789 789 788 787 787 786 786 785 785 785 784 783 783 783 783 783 783 784 784 784 785 785 785
804 804 804 804 804 804 804 803 802 802 801 801 800 800 799 799 798 797 797 797 796 796 795 795 794 794 794 793 793 793 793 793 793 793 793 793 793 793 792 792 791 790 790 789 789 788 787 787 786 785 785 784 784 783 783 782 782 781 781 781 781 781 781 782 782 783 783 783 784
804 804 804 804 804 804 803 802 801 801 800 800 799 799 798 798 797 796 796 796 795 795 795 794 794 793 793 792 792 792 792 792 792 792 792 792 792 792 791 790 790 789 788 788 787 786 786 785 785 784 783 782 781 781 781 780 780 779 779 779 779 779 779 780 780 781 781 782 782
804 804 804 804 803 803 802 801 800 800 799 798 798 797 797 797 796 796 795 795 795 794 794 793 793 792 792 792 791 791 791 791 791 791 791 791 791 790 790 789 788 788 787 786 786 785 784 784 783 782 781 780 779 779 779 779 778 778 778 777 777 777 777 778 779 780 780 780 780
804 804 803 803 802 802 801 800 800 799 798 798 797 796 796 796 795 795 795 794 794 793 793 792 792 791 791 791 791 791 790 790 790 790 790 790 789 789 788 788 787 787 786 785 785 784 783 782 781 780 779 778 777 777 777 777 777 777 776 775 775 775 776 776 777 778 778 779 779
804 803 803 803 802 801 801 800 800 799 798 797 797 796 796 795 795 795 794 794 793 792 792 792 791 791 791 791 790 790 790 790 789 789 789 788 788 787 787 786 786 785 785 784 783 782 781 781 780 779 778 777 776 775 775 776 776 776 775 774 774 774 774 775 775 776 777 777 777
804 804 804 803 803 802 801 800 800 799 798 797 796 796 795 795 795 794 794 793 792 792 792 792 791 791 791 790 790 790 789 789 788 788 787 787 787 786 786 785 785 784 784 783 782 781 780 779 778 777 777 776 775 774 774 775 776 775 774 773 772 772 772 773 774 774 775 775 775
805 805 804 804 803 802 801 800 800 799 798 797 796 796 795 795 795 794 793 793 792 792 792 791 791 791 790 790 790 789 789 788 788 787 787 786 786 785 785 784 783 782 781 781 780 779 778 777 777 776 775 775 774 772 773 775 775 775 774 772 771 771 771 771 772 773 773 774 774
805 805 805 804 803 802 801 800 799 798 798 797 796 796 795 795 794 794 793 793 792 792 791 791 791 790 790 790 789 788 788 788 787 786 786 785 785 784 783 782 781 780 780 779 778 777 776 775 775 774 774 773 772 772 772 774 775 774 773 771 771 770 770 771 771 772 772 772 772
806 805 805 804 802 801 800 799 798 798 797 796 796 795 795 794 794 793 793 792 792 791 791 790 790 790 789 789 788 788 788 787 786 786 785 785 784 783 782 781 780 779 778 777 776 775 775 774 773 772 772 771 771 771 772 773 774 773 772 770 770 770 771 771 771 771 771 771 771
806 805 804 803 802 801 800 799 798 797 796 796 795 795 794 794 793 793 792 792 792 791 791 790 790 790 789 789 788 788 787 787 786 785 785 784 783 782 781 780 779 778 777 776 775 775 774 773 773 771 770 770 770 771 772 773 773 772 771 770 770 770 770 770 770 770 770 770 770
806 805 804 803 801 800 799 798 797 796 796 795 795 794 794 793 793 793 792 792 792 791 791 790 790 789 789 788 788 787 787 786 785 785 784 783 782 781 780 779 778 777 776 776 775 775 774 773 772 772 771 771 771 772 773 773 773 772 771 770 770 770 770 770 770 769 769 769 769
805 804 803 802 801 800 799 797 796 796 795 795 795 794 793 793 792 792 792 792 792 792 791 791 790 790 789 789 788 787 787 786 785 784 784 783 782 781 780 779 778 777 776 775 775 774 774 773 772 772 772 771 772 772 773 773 773 772 771 770 770 769 769 770 769 769 769 769 769
804 803 802 801 800 799 798 797 796 795 795 795 795 794 794 793 793 793 792 792 792 792 791 791 790 790 790 789 788 787 786 786 785 784 784 783 782 780 779 778 777 776 776 775 775 774 774 773 773 773 772 772 772 773 773 773 773 772 771 770 770 770 770 770 770 769 769 769 769
804 803 801 800 799 798 798 797 796 796 796 795 795 795 795 794 794 793 793 793 792 791 791 791 791 790 790 789 788 787 786 785 785 785 784 783 781 780 779 778 777 776 775 775 774 774 774 774 774 773 773 773 772 772 772 772 772 771 771 770 770 770 770 770 770 770 770 770 769
803 802 801 800 799 798 798 797 797 797 796 796 796 796 795 795 795 794 794 793 793 792 791 791 791 790 790 789 788 787 786 786 785 785 784 783 782 780 779 778 777 776 775 775 775 775 774 774 774 774 773 773 773 772 772 772 772 771 771 771 771 771 770 770 770 770 770 770 770
802 801 800 800 799 799 799 798 798 798 798 797 797 796 796 796 795 795 795 794 793 792 792 791 791 790 790 788 787 787 786 786 785 785 784 783 782 781 780 779 778 777 776 776 775 775 775 775 774 774 774 774 773 773 773 773 772 772 772 772 771 771 771 771 770 771 771 771 770
801 801 800 800 800 800 800 799 799 799 798 798 797 797 797 796 796 795 795 794 793 793 792 792 791 790 789 788 787 787 786 786 786 785 784 783 781 780 780 779 779 778 778 777 776 776 775 775 775 775 774 774 774 774 773 773 773 773 773 773 772 772 772 771 771 771 771 771 771
801 801 800 800 800 800 800 800 800 799 799 798 798 797 797 797 796 795 795 794 794 793 792 791 790 790 789 788 787 787 786 786 785 785 784 783 781 780 780 780 779 779 778 778 777 777 777 776 776 775 775 775 774 774 774 774 774 774 774 774 773 773 772 772 771 771 770 770 770
801 801 801 801 801 801 801 800 800 800 799 799 798 798 797 797 796 796 795 795 794 793 792 791 790 790 789 788 787 787 786 786 785 785 784 783 782 781 780 780 780 780 779 779 778 778 777 777 776 776 775 775 775 775 775 775 774 774 774 774 773 773 772 771 771 770 770 770 770
802 802 802 802 802 802 802 801 800 800 800 799 799 798 798 797 796 796 795 795 794 793 792 791 790 790 789 788 788 787 786 786 785 785 784 783 782 782 781 781 780 780 780 779 778 778 778 777 777 776 776 775 775 775 775 775 774 774 774 773 773 772 771 771 770 770 769 769 768
803 803 803 804 804 803 802 802 801 800 800 800 799 799 798 798 797 796 796 795 794 793 792 791 790 790 790 789 788 787 787 786 785 785 784 783 783 782 781 781 780 780 780 779 778 778 777 777 777 776 776 776 775 775 775 775 774 774 773 772 772 771 771 770 770 769 768 768 767
804 804 805 805 805 804 803 803 802 801 800 800 800 800 799 799 798 797 796 795 795 794 793 792 791 790 790 789 788 788 787 786 785 785 784 784 783 782 781 781 780 780 779 779 778 777 777 777 776 776 776 775 775 775 775 775 774 774 773 772 771 771 770 770 769 768 768 767 766
805 805 805 805 805 805 804 803 803 802 801 801 801 801 800 800 799 798 797 796 795 794 793 792 791 790 790 789 788 788 787 786 785 785 784 783 782 782 781 780 780 779 778 778 777 777 777 776 776 776 775 775 775 775 775 774 774 773 773 772 771 770 770 769 768 768 767 767 766
805 805 806 806 806 805 805 804 803 803 802 802 802 801 801 800 799 798 797 796 795 794 793 792 791 790 790 789 788 787 786 786 785 784 784 783 782 781 780 780 779 779 778 778 777 777 776 776 776 775 775 775 775 774 774 774 773 773 773 772 771 770 770 769 768 767 767 766 765
806 806 806 806 806 806 805 805 804 804 803 803 803 802 801 800 799 798 797 796 795 794 793 792 791 790 790 789 788 787 787 786 785 784 784 783 782 781 780 780 779 778 778 777 777 777 776 776 776 775 775 775 775 774 774 774 773 773 773 772 771 770 770 769 768 767 766 766 765
806 806 806 806 806 806 806 805 805 805 804 804 803 802 801 800 799 798 797 796 795 794 793 792 792 791 790 789 788 788 787 786 785 785 784 783 782 781 781 780 779 778 778 777 777 777 776 776 776 775 775 775 775 775 774 774 774 773 773 772 771 771 770 769 768 767 766 765 765
806 805 805 805 806 806 806 806 805 805 805 804 803 802 801 800 799 798 797 796 795 795 794 793 792 791 790 790 789 788 787 786 785 785 784 783 783 782 781 780 780 779 778 777 776 776 776 776 776 775 775 775 775 775 774 774 774 773 773 772 771 771 770 769 768 767 766 765 764
805 805 805 806 806 806 806 806 806 805 805 804 803 802 801 800 799 798 797 797 796 795 794 793 792 791 790 790 789 788 787 786 785 785 784 784 783 782 781 780 780 779 778 776 776 776 776 776 776 776 775 775 775 775 774 774 773 773 772 772 771 770 770 769 768 767 766 765 764
806 806 806 806 807 807 807 806 806 805 805 804 803 802 801 800 800 799 798 797 796 795 794 793 792 791 790 790 789 788 787 786 785 785 784 784 783 782 782 781 780 778 777 777 776 776 776 776 776 776 775 775 775 775 774 774 773 773 772 771 770 770 769 768 767 766 765 764 763
806 807 807 807 807 807 806 806 806 805 805 804 803 802 801 800 800 799 798 797 796 795 794 793 792 791 790 789 788 787 786 786 785 785 784 784 783 782 782 781 780 779 777 777 777 777 777 776 776 776 775 775 775 774 774 773 773 772 772 771 770 769 769 768 766 765 765 764 763
807 807 807 807 807 806 806 806 806 805 804 804 803 802 801 800 799 798 797 796 795 794 793 792 791 790 789 788 787 787 786 785 785 785 784 784 783 783 782 781 781 779 778 778 777 777 776 776 776 775 775 775 774 774 774 773 773 772 771 770 770 769 768 767 766 765 764 763 762
807 807 807 807 807 806 806 806 805 805 804 803 802 802 801 800 799 798 797 796 795 794 793 792 791 790 789 788 787 786 786 785 785 784 784 784 783 783 782 782 782 780 778 778 777 777 776 776 775 775 775 774 774 774 773 773 772 772 771 770 769 768 767 766 765 764 763 762 761
807 807 807 807 807 806 806 806 805 805 804 803 802 801 800 799 798 797 796 795 794 793 792 791 790 790 789 788 787 786 785 785 785 784 784 783 783 783 782 782 782 780 778 778 777 776 776 775 775 775 774 774 774 773 773 773 772 771 771 770 769 768 767 766 765 764 763 762 761
807 807 807 807 807 806 806 805 805 804 804 803 801 800 800 799 798 797 796 795 794 793 792 791 790 789 788 787 787 786 785 785 785 784 784 783 783 782 782 781 781 780 778 777 777 776 775 775 775 774 774 773 773 773 773 772 772 771 770 770 769 767 766 765 764 763 762 761 760
807 806 806 807 806 806 806 805 805 804 803 802 801 800 799 798 797 796 795 794 793 793 792 791 790 789 788 788 787 786 785 785 785 784 783 783 782 782 781 781 780 780 779 777 776 775 775 774 774 773 773 773 772 772 772 772 771 770 770 769 768 767 766 765 764 763 762 761 760
807 806 806 806 806 806 805 805 804 803 802 801 800 799 798 797 796 795 795 794 793 792 792 791 790 789 788 788 787 786 785 785 784 784 783 783 782 781 781 780 780 779 779 777 776 775 774 774 773 773 772 772 772 771 771 771 770 770 769 768 767 767 766 765 764 763 762 761 760
807 806 806 806 806 805 805 805 804 803 802 801 800 799 798 797 796 795 794 794 793 792 791 790 790 789 788 787 786 786 785 785 784 783 783 782 782 781 780 780 779 779 778 777 776 775 774 773 773 772 772 771 771 771 771 770 770 769 768 768 767 766 765 765 764 763 762 760 760
807 806 806 806 806 805 805 804 803 803 802 801 800 799 798 797 796 795 794 793 793 792 791 790 789 788 787 787 786 785 785 784 784 783 782 782 781 780 780 779 778 778 777 776 775 774 773 773 773 772 771 771 771 770 770 770 769 769 768 767 766 765 765 764 763 762 761 760 759
806 806 806 806 805 805 804 804 803 802 801 800 800 799 798 797 796 795 794 793 792 792 791 790 789 788 787 786 785 785 784 783 783 782 782 781 780 780 779 778 778 777 776 775 775 774 773 772 772 772 771 771 770 770 770 770 769 768 767 766 765 765 764 763 762 761 760 760 758
Wind_Speed
12 13 14 14 14 14 15 15 17 18 19 20 21 22 23 23 22 22 21 20 19 18 16 15 14 13 13 13 12 13 13 13 14 14 15 16 18 20 22 24 25 26 26 25 25 24 24 23 23 24 24 24 24 24 23 23 21 21 20 20 18 18 17 17 16 16 15 15 15
16 16 17 16 15 15 15 16 17 18 19 20 21 22 22 22 21 20 19 18 17 16 15 14 14 13 13 13 13 13 13 13 14 14 16 18 20 22 24 25 25 25 25 25 24 24 24 24 24 24 24 24 24 24 24 24 22 22 21 20 19 18 17 16 16 15 15 15 15
18 18 17 15 14 14 16 17 18 19 20 20 21 21 20 20 19 18 17 17 16 15 14 14 14 14 13 14 13 13 13 13 15 16 18 20 22 24 25 25 25 24 24 24 24 24 24 24 24 25 25 24 24 24 24 24 23 22 21 20 19 18 17 16 16 16 16 16 16
16 15 13 13 13 15 18 19 20 21 21 21 21 20 19 19 19 18 17 16 15 14 13 13 14 14 14 14 14 13 14 15 16 18 20 22 23 24 24 24 24 24 24 24 25 25 25 25 25 25 25 25 25 25 24 24 23 22 21 20 18 18 17 17 16 16 17 17 18
13 12 13 15 17 19 21 22 22 23 23 22 21 20 20 20 19 19 18 16 15 14 14 14 14 14 14 14 14 15 16 17 18 19 20 21 22 22 22 23 23 23 24 24 25 25 25 25 25 26 26 26 25 24 23 22 22 21 20 19 18 18 17 17 17 17 17 18 18
17 18 19 20 21 22 22 23 23 23 23 22 21 20 19 19 17 16 15 15 15 15 16 16 15 15 15 15 16 17 18 18 19 19 20 20 20 21 21 22 22 23 24 25 25 25 26 26 26 27 26 25 23 21 20 20 21 21 20 18 18 18 17 16 16 17 17 17 17
20 21 22 22 23 22 22 22 23 22 21 20 19 18 17 16 15 14 14 15 16 17 18 17 16 16 16 17 18 19 19 19 19 18 19 19 20 20 21 22 23 23 24 25 26 26 26 25 26 25 23 21 20 20 20 20 21 21 20 18 18 17 17 17 17 17 17 17 16
21 21 22 22 21 21 20 21 21 20 19 18 17 16 16 16 16 16 17 18 18 18 17 17 17 18 18 18 18 18 18 17 17 17 18 19 20 21 22 23 24 24 25 25 26 26 25 24 25 24 22 20 20 20 20 20 21 21 20 19 18 18 18 17 17 17 16 15 15
21 21 21 21 20 20 19 19 19 19 18 17 16 16 17 19 21 22 21 20 19 18 18 18 18 18 18 18 17 16 16 15 16 17 18 19 21 22 23 24 25 25 25 25 25 26 25 25 25 24 22 20 19 18 18 19 20 20 21 20 19 18 18 17 16 16 15 15 15
20 20 20 20 20 19 19 19 18 18 17 16 15 17 19 22 23 23 21 20 19 18 18 18 18 17 17 16 15 15 15 15 16 18 19 21 22 23 24 24 25 25 25 25 25 26 25 24 23 21 19 17 16 16 17 19 21 21 21 19 17 17 17 16 16 16 16 17 17
19 19 19 19 20 20 19 19 18 17 16 15 16 18 20 20 20 19 18 17 17 17 17 16 16 15 14 14 14 15 16 17 18 20 21 22 23 24 24 25 25 26 26 26 26 25 25 23 21 18 16 16 16 16 18 19 20 20 19 17 16 16 17 17 17 17 18 18 18
19 19 19 19 20 20 19 19 18 16 15 15 15 16 16 16 16 16 16 16 16 16 15 14 14 13 14 14 15 16 17 18 19 20 21 22 23 24 25 26 26 26 26 26 26 25 23 21 18 16 15 16 16 17 18 18 18 18 17 16 16 16 17 17 17 17 16 16 15
18 19 19 19 19 20 19 19 17 16 15 15 15 15 15 15 15 15 15 15 15 14 14 14 14 14 15 16 17 18 18 19 20 20 21 22 23 24 25 26 26 26 25 25 24 23 20 17 14 13 12 13 14 15 16 16 16 16 16 15 15 15 15 14 13 13 13 12 12
18 19 19 19 19 19 19 19 17 16 15 15 15 15 15 15 14 14 13 14 14 15 15 16 16 16 17 18 18 19 19 19 20 21 22 23 24 24 24 24 24 23 23 22 20 18 16 14 12 11 11 11 12 12 12 13 14 14 14 13 13 13 12 11 10 10 10 10 10
19 19 19 20 20 20 19 18 17 16 16 16 16 16 16 15 14 14 13 14 15 15 16 17 18 18 18 18 18 18 19 19 20 21 22 23 23 23 22 21 20 19 19 17 15 13 12 11 11 10 10 10 9 9 8 9 10 10 10 10 11 11 11 10 9 8 8 8 8
19 20 20 20 20 20 19 18 17 16 17 17 18 18 17 17 16 15 15 16 16 16 16 17 18 18 18 18 18 19 20 20 21 21 22 22 21 20 18 17 16 16 15 14 12 10 9 9 9 9 9 9 8 8 9 9 10 10 10 10 10 10 10 10 10 9 8 7 6
20 20 21 21 20 19 18 18 17 17 18 19 19 19 19 18 18 17 17 17 17 17 17 17 17 18 18 19 19 20 20 20 20 20 20 19 18 16 16 15 15 14 13 12 11 11 10 11 11 10 10 10 10 10 10 10 10 10 10 10 10 10 9 9 10 10 10 9 8
21 21 21 21 20 18 18 18 18 18 19 19 19 19 19 19 19 18 18 17 17 17 18 18 18 18 18 19 19 19 18 18 18 17 17 16 15 15 16 16 16 15 15 14 13 13 13 13 12 12 11 11 10 10 10 11 11 11 11 11 11 10 10 10 11 12 12 13 12
21 21 21 20 18 18 17 18 18 19 19 19 19 19 19 19 19 18 18 18 18 18 18 18 17 17 16 16 16 15 15 15 16 16 16 16 16 16 16 17 16 16 15 14 14 13 13 12 12 12 12 11 11 12 12 12 13 13 14 14 13 13 13 14 15 15 16 16 16
22 21 20 18 18 18 18 19 19 19 20 19 19 19 19 19 18 18 18 18 18 17 16 15 15 14 14 13 13 12 13 13 14 14 15 15 15 15 15 15 15 14 14 13 13 13 13 13 14 14 14 14 14 15 15 15 16 16 16 16 16 16 16 17 18 18 18 17 17
20 19 18 17 18 18 19 20 20 20 20 19 19 19 18 18 18 18 17 17 16 14 13 13 12 12 12 12 12 12 11 12 12 13 14 14 14 14 14 13 13 13 13 13 14 15 16 17 18 18 18 18 18 18 18 18 18 17 17 17 17 17 17 17 17 17 17 17 17
18 18 17 17 18 19 20 20 20 20 19 19 18 18 17 17 16 15 14 14 13 12 12 12 12 12 12 12 12 12 12 12 12 12 13 14 14 14 14 14 14 14 14 15 16 17 18 19 19 20 20 20 20 19 19 18 18 17 17 17 17 16 16 16 16 16 15 15 16
17 17 18 18 19 20 20 20 19 18 18 17 17 16 15 14 14 13 12 12 12 12 12 12 12 12 12 12 13 13 13 13 13 13 14 14 15 15 16 16 16 16 15 15 16 17 18 18 18 19 19 19 19 18 17 16 16 16 17 17 17 17 16 16 16 16 15 16 16
17 18 18 18 19 19 18 18 17 17 16 16 15 14 14 13 12 12 12 12 12 12 12 12 12 12 12 12 13 13 14 14 14 15 15 15 16 16 17 17 17 17 16 15 16 16 16 16 16 17 17 17 17 16 16 15 16 16 16 16 17 17 17 17 17 17 17 17 17
17 17 17 16 17 17 16 16 16 16 15 15 14 13 13 12 12 12 12 12 12 12 12 12 13 13 13 13 13 14 14 14 14 15 15 15 15 16 16 17 17 16 15 14 14 14 14 14 14 15 15 15 15 15 15 16 16 16 16 16 17 17 17 18 18 18 18 18 18
15 15 15 15 15 15 15 16 15 15 15 14 13 13 12 12 12 12 12 13 13 13 13 13 13 14 14 14 13 13 13 13 14 14 14 14 15 15 16 16 16 15 14 13 13 13 13 12 12 13 13 14 14 14 15 16 16 16 16 17 17 17 18 18 19 19 19 19 19
13 13 14 14 15 15 15 15 15 14 14 13 13 12 12 11 11 12 12 13 13 13 13 13 13 13 13 13 13 13 13 13 13 14 14 15 15 15 15 16 16 16 16 15 14 14 13 12 11 11 12 12 13 14 14 15 15 16 16 16 17 18 18 19 19 20 20 20 20
12 12 13 14 14 15 15 14 14 14 13 12 12 12 11 11 11 12 12 12 13 13 13 13 12 12 12 12 13 13 13 13 13 14 14 15 15 15 16 16 17 17 17 16 14 13 12 11 10 10 11 12 13 13 14 14 14 14 15 16 17 18 18 19 20 20 21 21 21
12 13 14 14 14 14 14 13 13 12 12 12 12 12 11 11 11 11 11 12 12 13 13 13 12 12 12 12 13 13 13 13 13 13 14 14 15 15 16 17 17 17 16 14 12 11 10 9 8 9 10 11 12 13 13 13 14 14 15 16 17 18 19 20 20 21 22 22 23
14 15 14 13 13 12 12 12 12 11 11 11 11 12 12 11 11 11 11 11 12 12 13 13 12 12 12 13 13 13 13 12 12 12 12 13 14 15 16 17 18 16 13 12 9 7 6 6 7 9 10 11 12 14 14 15 15 16 16 17 18 18 19 20 21 22 22 22 22
14 14 13 12 11 11 11 11 10 10 11 11 11 12 12 12 12 11 11 11 12 12 13 13 13 13 13 13 13 13 13 12 11 11 11 12 13 14 16 18 17 13 9 8 7 6 6 7 9 10 11 12 14 16 17 17 17 17 17 17 18 19 20 20 21 21 22 22 22
13 12 12 12 10 10 10 10 10 10 10 11 11 12 13 13 13 13 12 12 12 13 13 14 14 14 14 14 14 13 12 12 11 11 11 12 13 14 16 18 16 11 7 7 7 8 8 9 10 11 13 15 17 19 19 18 17 17 17 18 19 20 20 20 21 21 21 21 20
12 11 11 10 9 9 9 9 10 10 11 11 12 12 13 14 14 14 14 13 13 13 14 14 14 15 15 14 14 13 12 11 11 12 12 12 13 14 15 17 15 11 9 9 10 11 11 12 13 14 16 18 20 20 19 17 17 17 18 18 19 20 20 21 21 21 21 20 19
11 10 9 9 9 9 9 10 10 11 12 13 13 13 14 14 15 15 15 14 14 14 14 14 15 15 15 14 14 13 12 12 13 13 13 13 13 13 14 16 14 12 11 12 14 14 15 15 16 17 18 20 20 20 18 17 16 17 18 19 19 20 21 21 21 21 21 20 19
9 9 9 9 9 9 10 11 11 12 13 14 14 14 14 15 15 15 15 14 14 14 14 15 15 15 16 15 15 14 14 14 14 14 14 14 13 13 14 14 13 13 14 16 16 16 17 17 17 18 19 19 19 18 16 15 16 17 18 19 20 20 21 21 21 21 20 20 19
8 8 9 9 9 10 11 12 12 13 14 15 15 15 15 15 14 14 14 14 14 15 15 16 17 17 17 17 16 16 15 15 14 14 14 13 13 13 13 14 13 14 15 16 17 17 16 17 17 17 18 18 16 15 14 14 15 16 17 18 19 20 20 21 21 21 20 20 20
8 8 9 9 10 10 11 12 13 14 15 15 16 16 16 15 14 14 14 14 15 16 17 18 18 18 18 18 17 17 16 15 15 14 14 13 14 14 14 14 14 14 15 16 17 17 17 17 17 17 16 15 14 13 13 13 14 15 16 17 18 18 19 20 21 21 21 21 20
8 8 8 9 10 11 11 12 13 14 15 15 16 16 16 15 15 14 14 15 16 17 17 18 18 17 17 17 17 17 17 16 15 14 14 14 15 15 15 15 15 15 15 16 17 18 18 17 16 16 14 13 12 12 12 13 14 15 16 16 17 17 18 19 20 20 20 20 20
7 8 8 9 10 11 11 12 13 14 15 16 16 17 17 17 16 15 15 15 16 17 17 17 17 17 17 17 17 17 17 16 16 15 15 15 15 15 15 15 15 15 16 16 18 18 17 16 15 14 13 11 11 12 12 13 14 15 16 16 17 17 18 18 19 19 20 20 20
7 7 8 9 10 11 11 12 13 14 16 16 17 17 17 17 17 16 16 17 17 18 18 18 18 18 18 17 17 16 17 17 17 16 15 15 15 15 15 15 15 16 16 16 17 17 15 14 12 12 11 11 11 12 12 13 14 15 16 16 17 17 18 19 19 19 19 20 20
7 7 8 10 10 11 11 12 14 15 16 17 17 17 17 17 17 17 17 18 18 19 19 19 19 19 19 18 17 16 16 17 17 16 16 15 14 14 14 15 15 15 15 15 14 14 13 11 10 10 10 11 12 12 12 13 14 15 16 17 17 18 19 19 19 19 19 19 19
Wind_Direction
279 278 278 279 281 285 290 294 297 300 303 304 304 303 302 300 297 296 294 292 291 292 294 297 298 299 298 296 295 292 289 287 287 288 291 296 298 298 295 292 288 286 285 284 283 282 281 279 276 273 270 266 264 263 261 260 257 255 252 250 249 249 250 250 251 250 249 250 251
284 281 280 279 282 286 291 296 301 305 307 308 308 306 304 302 299 296 294 292 291 292 294 296 296 296 294 292 289 286 284 285 288 292 296 298 296 294 291 288 286 286 285 285 284 283 281 278 275 271 268 264 261 260 259 257 256 254 253 252 252 252 252 253 254 254 255 256 256
285 282 280 281 286 293 300 305 309 311 311 310 309 307 304 302 300 298 296 294 293 293 293 294 292 290 287 284 280 279 282 288 295 299 299 296 293 290 287 286 287 287 287 286 285 283 280 277 273 270 266 262 259 258 257 257 256 255 255 254 253 252 252 253 255 257 258 259 259
292 289 290 295 303 311 316 318 318 316 313 310 307 304 301 300 299 299 299 298 297 295 293 289 285 282 278 276 277 282 289 297 300 299 296 293 290 288 287 288 289 289 289 287 285 283 280 276 273 269 266 262 259 258 258 258 258 258 258 255 253 251 251 252 255 257 259 260 260
319 320 321 323 325 326 326 325 323 319 315 310 305 301 298 297 297 297 297 296 295 292 286 280 277 275 276 279 287 294 299 301 299 295 292 289 288 288 290 291 292 291 290 289 287 283 280 277 273 270 266 264 263 262 262 261 261 259 257 254 250 249 249 251 253 255 257 258 260
335 334 332 330 328 327 326 325 323 320 316 311 306 302 300 299 298 297 295 291 287 282 277 275 275 278 286 293 298 300 300 297 294 290 289 289 291 293 294 295 294 293 291 290 287 284 281 277 273 270 269 269 268 267 266 266 263 259 255 250 247 247 248 250 252 253 255 258 260
335 333 331 329 327 327 326 324 323 320 317 314 311 309 308 308 306 301 294 286 281 278 278 280 285 292 298 300 299 297 295 292 290 289 290 293 296 297 297 296 294 292 290 288 286 284 282 279 277 276 275 272 269 266 265 266 265 261 256 251 248 248 251 253 254 255 256 257 259
335 333 331 329 327 327 326 324 322 320 319 317 316 315 314 313 308 301 294 287 284 284 288 293 297 299 300 299 296 294 292 291 291 293 295 298 299 299 297 294 290 287 285 284 283 282 281 280 281 281 279 273 267 263 263 264 264 262 259 257 255 254 255 256 257 257 257 257 257
335 333 330 328 326 324 322 321 320 319 319 320 319 316 312 308 303 299 295 292 292 295 297 299 299 299 297 295 294 293 294 296 298 300 301 301 300 297 293 290 287 284 282 281 280 279 278 278 278 278 276 271 267 264 262 260 259 260 262 262 261 260 260 260 260 261 260 259 257
334 331 328 325 323 320 319 318 317 318 319 320 319 313 308 304 301 299 297 297 299 300 300 299 298 297 296 296 296 298 301 302 303 303 302 300 297 294 291 289 287 285 283 281 279 277 276 275 274 272 270 268 269 270 266 260 258 261 266 268 269 268 267 266 267 268 267 265 262
332 328 324 322 321 320 319 318 317 317 318 318 315 310 306 304 302 301 301 301 300 299 299 299 299 300 300 301 303 305 305 304 303 302 300 298 296 294 292 291 289 288 286 284 282 280 279 277 275 272 271 273 277 276 271 264 264 269 274 276 276 274 272 271 272 272 272 270 268
328 325 323 321 321 321 320 319 317 317 316 315 312 308 306 305 305 305 305 305 303 303 303 304 305 306 307 307 307 306 305 303 302 301 300 299 297 296 295 294 293 292 290 289 288 287 286 286 286 286 286 288 286 281 275 271 273 278 281 280 277 276 275 276 276 276 275 275 276
326 324 323 322 322 322 321 319 318 316 315 313 312 310 310 311 313 314 314 314 315 316 316 315 314 312 310 308 306 305 304 303 303 303 302 301 300 299 298 297 297 297 296 296 296 296 298 301 306 309 309 305 298 289 282 281 284 287 287 286 284 285 286 287 287 284 282 282 284
326 324 323 323 322 322 321 321 320 320 320 320 320 321 322 323 325 326 327 326 326 326 324 321 317 314 311 308 307 306 306 307 307 307 305 303 301 300 300 301 302 303 304 305 307 310 313 317 322 323 320 314 307 298 293 294 298 300 301 300 301 302 306 310 307 300 294 292 289
325 324 323 323 322 323 324 326 329 331 334 336 337 338 339 340 340 339 337 334 330 328 325 321 318 315 313 312 312 313 314 314 314 311 307 304 303 303 305 308 312 315 318 319 321 323 325 326 327 326 324 322 319 318 319 324 329 331 330 328 325 325 328 333 331 324 316 310 303
324 323 323 323 325 328 333 338 342 346 349 351 351 351 351 350 348 345 342 339 335 331 329 326 323 321 320 321 323 324 324 322 318 313 309 307 308 311 317 324 331 335 337 337 339 342 346 347 347 347 347 347 348 351 355 358 0 0 357 352 349 346 346 347 348 347 343 338 334
322 323 324 327 331 338 346 352 354 356 356 356 356 355 354 352 350 347 346 344 342 339 336 333 331 330 330 330 332 332 331 326 322 318 317 318 324 332 341 349 355 359 1 1 6 11 16 17 15 12 10 8 6 5 5 4 6 6 4 0 358 355 352 353 356 356 355 353 352
323 325 328 332 339 348 355 359 360 358 357 355 354 353 352 351 350 348 346 345 344 341 338 335 335 335 336 337 338 339 338 336 335 336 339 345 352 359 4 7 11 15 18 20 23 25 26 24 22 19 16 13 8 4 1 0 2 4 4 1 356 351 349 351 351 350 347 344 340
326 329 333 339 346 353 358 360 359 356 354 352 350 349 348 348 346 344 342 340 338 337 335 335 338 340 342 344 346 349 352 355 356 358 2 6 9 11 12 13 16 19 22 23 23 23 22 20 19 18 15 11 6 2 1 -0 -0 359 357 353 348 345 343 341 339 337 334 330 326
330 334 339 345 351 355 357 357 355 353 350 349 347 346 344 342 341 339 337 335 335 336 339 343 347 350 350 350 354 359 4 6 5 5 6 8 9 9 10 11 13 15 16 17 15 13 11 9 9 9 8 5 2 -0 358 356 353 351 347 343 340 337 335 332 330 328 326 323 319
335 342 347 352 356 357 356 354 352 350 349 347 345 344 341 340 339 338 337 338 341 346 351 354 355 356 356 356 359 2 5 3 2 1 360 1 3 3 3 5 7 8 7 5 3 1 360 360 -0 0 0 360 358 356 353 349 346 343 340 337 334 331 328 326 324 322 319 315 312
346 351 355 357 358 357 355 353 352 351 350 349 347 345 344 344 344 344 346 350 353 357 360 359 359 359 1 1 1 0 360 359 358 357 355 354 356 356 356 357 357 358 358 355 352 351 351 351 352 353 354 354 354 352 349 346 342 338 335 332 329 326 323 320 317 314 310 307 304
358 -0 0 360 358 357 356 355 355 355 356 355 355 355 355 356 359 1 3 3 3 4 4 1 359 359 1 0 357 355 354 354 354 353 352 352 351 351 351 350 350 350 349 348 346 345 345 346 347 348 350 350 350 348 345 342 338 334 331 328 325 321 318 315 311 308 304 301 298
5 5 4 2 -0 360 1 2 3 5 6 7 7 7 8 9 11 12 10 7 3 1 -0 357 353 350 350 351 350 349 349 350 350 350 350 350 349 348 347 347 346 345 344 341 340 341 342 344 345 345 346 346 345 343 339 335 332 329 326 323 320 317 314 311 308 304 300 296 293
8 8 9 9 8 10 12 13 14 15 15 14 14 14 12 11 11 10 6 359 356 353 351 348 343 341 341 343 344 346 347 347 348 349 348 348 346 345 345 343 342 341 339 335 334 336 338 339 340 340 340 339 338 336 333 330 328 326 322 319 315 311 308 306 303 300 296 292 288
15 18 21 23 22 21 20 19 20 19 18 15 12 9 7 6 5 3 359 354 349 346 344 341 339 338 339 341 343 345 346 347 347 347 347 345 344 343 342 341 338 335 331 326 324 325 327 329 331 331 332 332 332 331 329 328 326 324 320 316 312 307 304 301 299 297 295 292 289
26 30 30 27 23 19 17 16 16 14 11 8 4 -0 357 356 355 353 351 349 346 344 342 341 339 339 339 341 343 344 344 345 345 346 346 345 343 341 338 336 333 329 325 320 316 314 314 316 318 320 323 326 328 329 329 327 325 322 319 314 310 306 304 302 301 301 300 299 297
29 29 27 23 16 11 9 8 8 6 2 358 354 350 347 345 345 345 346 346 345 344 342 341 339 338 337 338 339 340 340 341 342 343 343 343 340 337 334 331 328 325 322 318 311 305 302 303 308 315 322 327 329 330 329 327 324 320 316 312 309 307 306 305 305 305 306 305 305
21 18 16 15 10 6 4 3 1 358 354 350 346 343 341 339 339 341 343 344 344 342 340 337 335 334 333 333 333 333 334 335 337 338 338 338 336 333 330 327 326 324 321 316 309 300 297 301 311 321 329 332 332 331 330 326 321 316 312 309 307 305 305 304 305 305 305 305 305
16 12 10 9 8 6 3 359 355 351 347 345 342 340 338 336 335 336 338 339 339 338 335 333 331 329 327 326 325 324 324 326 328 331 332 332 331 330 328 326 327 326 322 318 316 315 318 325 332 337 338 338 336 333 330 325 319 314 309 305 303 302 301 300 300 300 300 299 300
16 13 10 7 7 4 359 352 348 345 343 341 340 337 336 334 332 332 332 332 331 331 330 328 326 324 321 319 317 316 315 316 320 324 327 328 330 331 330 328 332 330 324 327 337 345 347 346 343 342 340 339 337 335 332 328 321 314 308 304 301 299 299 298 298 298 298 298 298
16 15 11 7 7 2 354 346 341 339 337 336 335 334 333 331 329 328 327 325 323 323 323 322 321 318 316 314 312 311 312 315 320 325 328 330 333 334 333 331 337 343 350 355 357 355 350 346 343 341 340 339 338 338 336 332 324 316 310 306 303 301 300 300 300 300 300 302 303
16 16 13 9 4 355 347 341 337 334 332 331 331 331 330 328 327 325 323 320 318 317 316 316 315 314 312 311 311 313 318 324 329 332 334 334 335 336 334 331 337 349 3 4 360 354 348 344 341 340 339 338 338 339 338 333 325 318 313 309 307 305 304 304 304 305 306 308 310
16 16 13 7 357 347 341 336 333 331 329 328 328 327 326 324 323 322 320 318 315 313 312 312 312 313 313 313 315 320 328 335 338 340 339 338 337 335 332 329 332 340 348 350 348 344 341 338 336 334 333 333 335 337 337 333 326 321 317 314 311 310 309 309 310 310 312 313 315
17 14 8 359 350 342 336 333 331 330 328 326 324 322 321 320 318 318 318 317 316 315 315 316 318 320 322 324 329 333 337 339 339 339 338 337 335 331 327 323 324 327 331 333 333 331 329 327 325 324 324 326 330 335 336 333 328 323 320 318 316 314 314 314 315 316 316 317 319
16 10 1 351 343 338 334 331 329 327 326 324 322 319 317 316 315 316 319 322 325 326 328 329 331 332 334 336 337 338 337 335 333 332 332 333 331 326 321 317 316 317 319 320 320 318 317 315 314 313 315 320 327 333 336 333 328 325 323 321 319 318 318 319 320 319 319 318 318
12 3 353 344 338 333 330 328 325 324 324 323 322 320 318 317 317 320 325 331 334 335 336 336 335 336 336 337 336 335 333 330 327 326 327 328 327 324 319 314 310 309 309 309 310 310 309 308 307 307 310 317 326 333 334 332 329 326 324 323 322 321 322 322 321 320 318 316 314
7 357 346 338 332 327 325 323 323 323 324 325 326 326 325 325 326 328 332 335 336 336 334 333 332 331 331 332 332 332 332 331 328 325 324 324 325 323 321 316 311 307 305 304 304 305 305 305 304 305 308 316 326 332 333 331 328 326 325 325 324 323 324 323 321 319 316 313 312
359 349 339 331 325 321 321 322 325 327 329 330 331 332 332 333 333 334 336 336 335 333 331 329 327 326 327 328 329 331 333 334 331 328 324 323 323 323 322 319 314 310 307 304 302 301 302 303 304 307 312 319 326 329 329 329 326 325 325 325 325 324 324 323 321 318 315 313 312
346 337 329 324 320 320 323 327 332 334 335 335 336 335 335 335 335 336 336 336 335 333 330 328 326 325 325 326 328 332 334 335 333 330 326 322 320 319 319 318 315 312 310 306 303 301 302 303 307 312 318 323 325 326 327 326 324 323 323 324 325 325 324 322 320 318 315 313 312
327 322 320 320 322 325 330 335 338 339 337 336 335 335 334 334 334 335 336 336 335 333 332 330 328 327 328 329 330 333 333 333 332 329 326 322 319 316 316 316 316 316 315 313 312 310 309 309 312 315 318 320 322 324 325 324 322 321 322 323 324 324 323 321 319 317 315 312 310